Regional Weather Roundup
Issued by NWS

Home | Current Version | Previous Version | Graphics & Text | Print | Product List | Glossary On
Versions: 1 2 3 4 5 6 7 8 9 10 11 12 13 14 15 16 17 18 19 20 21 22 23 24 25 26 27 28 29 30 31 32 33 34 35 36 37 38 39 40 41 42 43 44 45 46 47 48 49 50
000
ASUS43 KMPX 290101
RWRMN
WEATHER ROUNDUP FOR MINNESOTA
NATIONAL WEATHER SERVICE TWIN CITIES/CHANHASSEN MN
800 PM CDT MON JUL 28 2014


NOTE: "FAIR" INDICATES FEW OR NO CLOUDS BELOW 12,000 FEET WITH NO
SIGNIFICANT WEATHER AND/OR OBSTRUCTIONS TO VISIBILITY. N/A MEANS
CURRENT SKY AND/OR WEATHER CONDITIONS ARE NOT AVAILABLE.

MNZ060>063-068>070-290200-
   Twin Cities Metro

CITY           SKY/WX    TMP DP  RH WIND       PRES   REMARKS
TWIN CITIES    PTCLDY    73  53  49 NW8       30.13S
ST PAUL        CLEAR     72  52  49 N5        30.12F
CRYSTAL        PTCLDY    73  52  47 NW8       30.12S
BLAINE         PTCLDY    73  54  49 NW8       30.13S
LAKEVILLE      PTCLDY    68  55  64 NW6       30.13F
EDEN PRAIRIE   PTCLDY    72  54  53 NW7       30.13S
SOUTH ST PAUL  CLEAR     73  51  45 N5        30.12S
LAKE ELMO      FAIR      72  55  56 CALM      30.13F
$$
MNZ001>005-007-008-013>017-022>024-027-028-290200-
   Northwest Minnesota

CITY           SKY/WX    TMP DP  RH WIND       PRES   REMARKS
BEMIDJI        CLEAR     69  53  57 NW7       30.17S
HALLOCK        CLEAR     73  55  53 NW6       30.17F
ROSEAU           N/A     72  57  60 W8        30.16S
WARROAD        MOCLDY    72  61  68 W7        30.15F
THIEF RVR FALL CLEAR     70  55  60 NW8       30.18F
CROOKSTON      CLEAR     70  59  68 NW5       30.19F
FOSSTON        CLEAR     70  54  56 NW6       30.19F
DETROIT LAKES  CLEAR     68  54  60 NW7       30.20F
MOORHEAD       CLEAR     70  61  73 CALM      30.19F
PARK RAPIDS    CLEAR     68  54  60 NW9       30.17F
$$
MNZ006-009>011-018-025>026-290200-
   North Central Minnesota

CITY           SKY/WX    TMP DP  RH WIND       PRES   REMARKS
BAUDETTE       CLEAR     71  55  56 W5        30.15F
FLAG ISLAND    CLEAR     73  57  56 NW5       30.12F
INTL FALLS     CLEAR     69  58  67 W6        30.12S
WASKISH        CLEAR     70  55  60 CALM      30.15S
BIG FORK       PTCLDY    70  55  60 NW2       30.14S
LONGVILLE      CLEAR     68  55  64 CALM      30.15F
GRAND RAPIDS   CLEAR     70  52  52 NW9       30.14S
CRANE LAKE     CLEAR     68  55  64 CALM      30.12S
ORR            CLEAR     68  55  64 NW3       30.10S
COOK           PTCLDY    70  55  60 NW3       30.12S
$$
MNZ012-019>021-037-290200-
   Northeast Minnesota

CITY           SKY/WX    TMP DP  RH WIND       PRES   REMARKS
DULUTH         PTCLDY    69  54  58 NW6       30.10S
ELY            CLEAR     66  55  68 NW6       30.10S
HIBBING        CLEAR     70  53  54 N8        30.12S
EVELETH        PTCLDY    70  52  52 NW9       30.12S
DULUTH HARBOR  PTCLDY    73  57  56 W9        30.08S
TWO HARBORS    CLEAR     68  55  64 CALM      30.06F
SILVER BAY     CLEAR     66  57  72 CALM      30.05S
GRAND MARAIS     N/A     62  55  77 SW3       30.03R
G MARAIS ARPRT PTCLDY    63  52  67 NW5       30.08R
$$
MNZ029>031-032-039>041-046>048-054>057-064-290200-
   West Central Minnesota

CITY           SKY/WX    TMP DP  RH WIND       PRES   REMARKS
FERGUS FALLS   CLEAR     68  52  56 NW6       30.18F
WHEATON        CLEAR     66  55  68 W3        30.21F
MORRIS         CLEAR     68  57  68 NW6       30.19S
ALEXANDRIA     CLEAR     71  52  50 NW7       30.19F
ELBOW LAKE     FAIR      67  54  63 NW9       30.19S
WADENA         CLEAR     66  54  63 NW6       30.18S
GLENWOOD       CLEAR     68  55  64 NW6       30.19F
APPLETON       CLEAR     70  54  56 NW8       30.18F
BENSON         CLEAR     68  54  60 NW8       30.18F
ORTONVILLE     CLEAR     70  52  52 NW7       30.20F
MADISON        CLEAR     70  55  60 NW5       30.20F
WILLMAR        FAIR      72  52  49 NW8       30.19S
$$
MNZ033>034-036-042>043-049>051-058-059-290200-
   Central Minnesota

CITY           SKY/WX    TMP DP  RH WIND       PRES   REMARKS
ST CLOUD       PTCLDY    71  56  58 NW5       30.14F
SAUK CENTRE    FAIR      70  54  56 NW7       30.17F
PAYNESVILLE    CLEAR     67  52  57 W5        30.17F
AITKIN         CLEAR     72  57  60 CALM      30.13S
PINE RIVER     CLEAR     70  55  60 NW6       30.18S
BRAINERD       CLEAR     70  53  54 N8        30.15S
STAPLES        PTCLDY    68  54  60 NW7       30.17S
LONG PRAIRIE   FAIR      68  54  60 W7        30.17F
LITTLE FALLS   CLEAR     70  54  56 NW7       30.16S
LITCHFIELD     CLEAR     72  55  56 NW6       30.16F
BUFFALO        MOCLDY    73  52  48 NW6       30.15S
MAPLE LAKE     PTCLDY    72  57  59 NW6       30.16S
$$
MNZ037-044-045-052-053-290200-
   East Central Minnesota

CITY           SKY/WX    TMP DP  RH WIND       PRES   REMARKS
PRINCETON      CLEAR     72  55  56 NW3       30.14S
MORA           CLEAR     68  54  60 NW5       30.14F
CAMBRIDGE      CLEAR     73  55  53 CALM      30.11F
RUSH CITY      CLEAR     69  56  63 CALM      30.12F
MOOSE LAKE     CLEAR     70  55  60 W3        30.10S
HINCKLEY       FAIR      70  55  60 NW3       30.12S
CLOQUET        CLEAR     70  54  56 W6        30.11S
MCGREGOR       CLEAR     70  55  60 NW5       30.14S
$$
MNZ071>073-080-081-089-090-097-098-290200-
   Southwest Minnesota

CITY           SKY/WX    TMP DP  RH WIND       PRES   REMARKS
MONTEVIDEO     CLEAR     70  54  56 N7        30.19F
GRANITE FALLS  CLEAR     68  55  62 NW6       30.20F
CANBY          CLEAR     69  52  54 NW5       30.21F
MARSHALL       CLEAR     68  52  56 NW9       30.19S
REDWOOD FALLS  CLEAR     71  53  52 NW7       30.17F
OLIVIA         CLEAR     70  54  56 NW8       30.17S
PIPESTONE      CLEAR     68  54  60 NE7       30.21F
WINDOM         CLEAR     68  55  64 NW5       30.19F
WORTHINGTON    CLEAR     66  55  68 N6        30.21F
JACKSON        CLEAR     68  54  60 N3        30.20S
TRACY          CLEAR     68  54  61 NW6       30.20F
SLAYTON        CLEAR     67  53  60 CALM      30.22S
$$
MNZ065>067-074>077-082>085-091>093-290200-
   South Central Minnesota

CITY           SKY/WX    TMP DP  RH WIND       PRES   REMARKS
MANKATO        PTCLDY    70  54  56 NW7       30.15F
NEW ULM        CLEAR     70  55  60 NW7       30.16F
ST JAMES       CLEAR     70  55  60 NW3       30.18S
FAIRMONT       PTCLDY    72  52  49 NW6       30.17F
GLENCOE        CLEAR     72  53  52 NW6       30.15S
FARIBAULT      CLEAR     72  55  56 CALM      30.15S
OWATONNA       CLEAR     70  54  56 W5        30.15F
WASECA         CLEAR     64  52  63 W3        30.17S
ALBERT LEA     CLEAR     68  54  60 CALM      30.16S
$$
MNZ078>079-086>088-094>096-290200-
   Southeast Minnesota

CITY           SKY/WX    TMP DP  RH WIND       PRES   REMARKS
ROCHESTER      CLEAR     68  51  54 NW7       30.15F
RED WING       CLEAR     70  59  68 CALM      30.11S
STANTON        CLOUDY    72  56  58 W5        30.12F
DODGE CENTER   CLEAR     68  54  60 NW5       30.15F
WINONA         CLEAR     70  54  56 CALM      30.12S
AUSTIN         PTCLDY    68  54  60 NW3       30.15S
PRESTON        CLEAR     65  60  81 NW3       30.15S
$$
ABBREVIATIONS USED IN REMARKS
   TC - TEMPERATURES IN CELSIUS
  WCI - WIND CHILL INDEX
   HX - HEAT INDEX
  VSB - VISIBILITY
$$


USA.gov is the U.S. government's official web portal to all federal, state and local government web resources and services.